Simultaneous Nadir Overpasses (SNOs) Predictions

Prediction of SNOs between METOP-A and TERRA Satellite Orbit:

Table of predicted SNOs for the next 14.0 days since TLE Epoch: 11/6/2021
Index Date (METOP-A) Time (METOP-A) Lat,Lon (METOP-A) SZA (METOP-A ) Date (TERRA) Time (TERRA) Lat,Lon (TERRA) SZA (TERRA ) Distance(km) Time Diff (sec)
1 11/06/2021 09:03:01 81.25, 88.43 100.14 11/06/2021 09:04:01 81.26, 88.49 100.19 1.99 60
2 11/06/2021 09:53:41 -81.24,-104.09 79.84 11/06/2021 09:53:28 -81.26,-103.97 79.82 2.59 13
3 11/09/2021 04:37:20 81.25, 154.80 100.95 11/09/2021 04:38:14 81.24, 154.62 100.95 3.06 54
4 11/09/2021 05:28:00 -81.24, -37.70 79.04 11/09/2021 05:27:41 -81.24, -37.82 79.06 2.04 19
5 11/12/2021 00:11:38 81.25,-138.86 101.71 11/12/2021 00:12:25 81.24,-138.96 101.71 1.71 47
6 11/12/2021 01:02:18 -81.24, 28.66 78.28 11/12/2021 01:01:52 -81.24, 28.63 78.29 0.56 26
7 11/14/2021 19:45:57 81.25, -72.55 102.42 11/14/2021 19:46:37 81.24, -72.61 102.42 1.59 40
8 11/14/2021 20:36:37 -81.24, 94.98 77.56 11/14/2021 20:36:04 -81.24, 94.99 77.58 0.48 33
9 11/17/2021 15:20:15 81.24, -5.90 103.12 11/17/2021 15:20:48 81.25, -5.98 103.13 2.04 33



Historial Predications of SNOs between METOP-A and TERRA
